TimeCDT,TemperatureF,Dew PointF,Humidity,Sea Level PressureIn,VisibilityMPH,Wind Direction,Wind SpeedMPH,Gust SpeedMPH,PrecipitationIn,Events,Conditions,WindDirDegrees,DateUTC
12:15 AM,39.2,15.8,39,30.15,10.0,NE,5.8,-,N/A,,Scattered Clouds,40,2014-03-25 05:15:00
12:35 AM,39.2,15.8,39,30.15,10.0,NNE,5.8,-,N/A,,Mostly Cloudy,30,2014-03-25 05:35:00
12:55 AM,39.2,15.8,39,30.15,10.0,NNE,5.8,-,N/A,,Overcast,20,2014-03-25 05:55:00
1:15 AM,39.2,17.6,42,30.14,10.0,NNE,4.6,-,N/A,,Mostly Cloudy,20,2014-03-25 06:15:00
1:35 AM,39.2,17.6,42,30.14,10.0,NNE,5.8,-,N/A,,Overcast,30,2014-03-25 06:35:00
1:55 AM,39.2,17.6,42,30.14,10.0,North,6.9,-,N/A,,Overcast,350,2014-03-25 06:55:00
2:15 AM,39.2,19.4,45,30.14,10.0,North,9.2,-,N/A,,Overcast,360,2014-03-25 07:15:00
2:35 AM,37.4,19.4,48,30.14,10.0,North,6.9,-,N/A,,Mostly Cloudy,350,2014-03-25 07:35:00
2:55 AM,37.4,21.2,52,30.14,10.0,NNW,6.9,-,N/A,,Overcast,340,2014-03-25 07:55:00
3:15 AM,37.4,23.0,56,30.14,10.0,NNW,4.6,-,N/A,,Overcast,340,2014-03-25 08:15:00
3:35 AM,37.4,24.8,60,30.14,10.0,NNW,3.5,-,N/A,,Overcast,330,2014-03-25 08:35:00
3:55 AM,37.4,23.0,56,30.14,10.0,NNW,8.1,-,N/A,,Overcast,330,2014-03-25 08:55:00
4:15 AM,37.4,23.0,56,30.15,10.0,NNW,4.6,-,N/A,,Overcast,340,2014-03-25 09:15:00
4:35 AM,37.4,23.0,56,30.15,10.0,NNW,6.9,-,N/A,,Overcast,330,2014-03-25 09:35:00
4:55 AM,37.4,23.0,56,30.15,10.0,NW,3.5,-,N/A,,Overcast,320,2014-03-25 09:55:00
5:15 AM,37.4,21.2,52,30.15,10.0,NNW,3.5,-,N/A,,Overcast,330,2014-03-25 10:15:00
5:35 AM,37.4,23.0,56,30.15,10.0,WNW,4.6,-,N/A,,Overcast,300,2014-03-25 10:35:00
5:55 AM,37.4,23.0,56,30.16,10.0,WNW,8.1,-,N/A,,Mostly Cloudy,300,2014-03-25 10:55:00
6:15 AM,37.4,23.0,56,30.16,10.0,NW,6.9,-,N/A,,Overcast,320,2014-03-25 11:15:00
6:35 AM,37.4,23.0,56,30.18,10.0,NW,8.1,-,N/A,,Overcast,320,2014-03-25 11:35:00
6:55 AM,37.4,23.0,56,30.20,10.0,NW,16.1,21.9,N/A,,Overcast,320,2014-03-25 11:55:00
7:15 AM,37.4,21.2,52,30.21,10.0,NW,12.7,21.9,N/A,,Overcast,320,2014-03-25 12:15:00
7:35 AM,37.4,21.2,52,30.22,10.0,NW,13.8,19.6,N/A,,Mostly Cloudy,310,2014-03-25 12:35:00
7:55 AM,37.4,21.2,52,30.23,10.0,NW,9.2,-,N/A,,Partly Cloudy,320,2014-03-25 12:55:00
8:15 AM,37.4,21.2,52,30.23,10.0,NW,9.2,21.9,N/A,,Mostly Cloudy,320,2014-03-25 13:15:00
8:35 AM,37.4,23.0,56,30.24,10.0,NW,15.0,20.7,N/A,,Mostly Cloudy,310,2014-03-25 13:35:00
8:55 AM,37.4,23.0,56,30.25,10.0,NW,12.7,21.9,N/A,,Mostly Cloudy,310,2014-03-25 13:55:00
9:15 AM,39.2,21.2,49,30.25,10.0,NNW,18.4,25.3,N/A,,Mostly Cloudy,330,2014-03-25 14:15:00
9:35 AM,39.2,21.2,49,30.25,10.0,NNW,17.3,21.9,N/A,,Mostly Cloudy,330,2014-03-25 14:35:00
9:55 AM,39.2,21.2,49,30.25,10.0,NW,19.6,27.6,N/A,,Mostly Cloudy,320,2014-03-25 14:55:00
10:15 AM,41.0,19.4,42,30.26,10.0,NW,17.3,27.6,N/A,,Mostly Cloudy,310,2014-03-25 15:15:00
10:35 AM,41.0,17.6,39,30.27,10.0,NNW,16.1,26.5,N/A,,Scattered Clouds,330,2014-03-25 15:35:00
10:55 AM,42.8,17.6,36,30.28,10.0,NNW,17.3,25.3,N/A,,Scattered Clouds,330,2014-03-25 15:55:00
11:15 AM,42.8,17.6,36,30.28,10.0,NW,17.3,24.2,N/A,,Scattered Clouds,320,2014-03-25 16:15:00
11:35 AM,42.8,15.8,34,30.29,10.0,WNW,17.3,24.2,N/A,,Mostly Cloudy,300,2014-03-25 16:35:00
11:55 AM,44.6,15.8,31,30.29,10.0,NW,15.0,24.2,N/A,,Mostly Cloudy,320,2014-03-25 16:55:00
12:15 PM,42.8,15.8,34,30.28,10.0,NW,13.8,26.5,N/A,,Mostly Cloudy,310,2014-03-25 17:15:00
12:35 PM,42.8,15.8,34,30.28,10.0,NNW,18.4,28.8,N/A,,Mostly Cloudy,330,2014-03-25 17:35:00
12:55 PM,44.6,17.6,34,30.28,10.0,NNW,21.9,27.6,N/A,,Scattered Clouds,340,2014-03-25 17:55:00
1:15 PM,42.8,15.8,34,30.29,10.0,NW,18.4,28.8,N/A,,Mostly Cloudy,320,2014-03-25 18:15:00
1:35 PM,44.6,17.6,34,30.28,10.0,NW,16.1,21.9,N/A,,Mostly Cloudy,320,2014-03-25 18:35:00
1:55 PM,44.6,15.8,31,30.28,10.0,WNW,17.3,25.3,N/A,,Mostly Cloudy,300,2014-03-25 18:55:00
2:15 PM,44.6,15.8,31,30.28,10.0,WNW,18.4,26.5,N/A,,Mostly Cloudy,300,2014-03-25 19:15:00
2:35 PM,44.6,17.6,34,30.26,10.0,NW,16.1,24.2,N/A,,Mostly Cloudy,320,2014-03-25 19:35:00
2:55 PM,44.6,15.8,31,30.26,10.0,NW,15.0,25.3,N/A,,Mostly Cloudy,320,2014-03-25 19:55:00
3:15 PM,44.6,17.6,34,30.26,10.0,NW,19.6,26.5,N/A,,Mostly Cloudy,320,2014-03-25 20:15:00
3:35 PM,44.6,17.6,34,30.26,10.0,NW,13.8,21.9,N/A,,Scattered Clouds,310,2014-03-25 20:35:00
3:55 PM,44.6,17.6,34,30.26,10.0,WNW,12.7,20.7,N/A,,Mostly Cloudy,290,2014-03-25 20:55:00
4:15 PM,44.6,15.8,31,30.26,10.0,North,16.1,20.7,N/A,,Mostly Cloudy,350,2014-03-25 21:15:00
4:35 PM,42.8,15.8,34,30.26,10.0,NW,10.4,17.3,N/A,,Mostly Cloudy,320,2014-03-25 21:35:00
4:55 PM,44.6,15.8,31,30.26,10.0,NW,15.0,21.9,N/A,,Overcast,320,2014-03-25 21:55:00
5:15 PM,44.6,15.8,31,30.26,10.0,NNW,13.8,20.7,N/A,,Overcast,340,2014-03-25 22:15:00
5:35 PM,44.6,15.8,31,30.26,10.0,NW,10.4,17.3,N/A,,Overcast,310,2014-03-25 22:35:00
5:55 PM,44.6,14.0,29,30.26,10.0,WNW,12.7,19.6,N/A,,Mostly Cloudy,290,2014-03-25 22:55:00
6:15 PM,42.8,14.0,31,30.27,10.0,NW,11.5,19.6,N/A,,Mostly Cloudy,320,2014-03-25 23:15:00
6:35 PM,42.8,12.2,29,30.27,10.0,NW,10.4,17.3,N/A,,Partly Cloudy,310,2014-03-25 23:35:00
6:55 PM,42.8,12.2,29,30.27,10.0,NW,6.9,-,N/A,,Mostly Cloudy,320,2014-03-25 23:55:00
7:15 PM,41.0,12.2,31,30.27,10.0,NNW,4.6,-,N/A,,Partly Cloudy,340,2014-03-26 00:15:00
7:35 PM,39.2,12.2,33,30.27,10.0,North,4.6,-,N/A,,Clear,350,2014-03-26 00:35:00
7:55 PM,39.2,12.2,33,30.27,10.0,Calm,Calm,-,N/A,,Clear,0,2014-03-26 00:55:00
8:15 PM,39.2,12.2,33,30.27,10.0,Calm,Calm,-,N/A,,Clear,0,2014-03-26 01:15:00
8:35 PM,39.2,12.2,33,30.28,10.0,Calm,Calm,-,N/A,,Clear,0,2014-03-26 01:35:00
8:55 PM,37.4,14.0,38,30.27,10.0,Calm,Calm,-,N/A,,Clear,0,2014-03-26 01:55:00
9:15 PM,35.6,12.2,38,30.28,10.0,Calm,Calm,-,N/A,,Clear,0,2014-03-26 02:15:00
9:35 PM,33.8,14.0,44,30.28,10.0,Calm,Calm,-,N/A,,Clear,0,2014-03-26 02:35:00
9:55 PM,33.8,14.0,44,30.28,10.0,Calm,Calm,-,N/A,,Clear,0,2014-03-26 02:55:00
10:15 PM,33.8,15.8,48,30.29,10.0,Calm,Calm,-,N/A,,Clear,0,2014-03-26 03:15:00
10:35 PM,32.0,15.8,51,30.29,10.0,Calm,Calm,-,N/A,,Clear,0,2014-03-26 03:35:00
10:55 PM,32.0,15.8,51,30.29,10.0,Calm,Calm,-,N/A,,Clear,0,2014-03-26 03:55:00
11:15 PM,32.0,17.6,55,30.29,10.0,Calm,Calm,-,N/A,,Clear,0,2014-03-26 04:15:00
11:35 PM,30.2,17.6,60,30.30,10.0,NE,8.1,-,N/A,,Clear,50,2014-03-26 04:35:00
11:55 PM,30.2,15.8,55,30.31,10.0,NE,3.5,-,N/A,,Clear,40,2014-03-26 04:55:00